Location: Newark
(45.2500°N, 7.5833°E)
Time: 19:06:26
(UTC+00:00)

Vanguard 3 - Pass Details

Date: 29 January 2020
Orbit: 508 x 3263 km, 33.3° (Epoch: 17 February)

Event Time Altitude Azimuth Distance (km) Brightness Sun altitude
Rises 13:06:16 0° 192° (SSW) 6,000 12.9 24.0°
Reaches altitude 10° 13:11:18 10° 178° (S) 5,394 12.7 23.6°
Maximum altitude 13:22:54 23° 135° (SE) 5,013 11.6 22.8°
Drops below altitude 10° 13:35:59 10° 94° (E) 6,191 11.5 21.7°
Sets 13:42:16 0° 82° (E) 7,093 11.6 21.2°
